WB6DHP Weather Reports


time (UTC)temp
F
wind
direction
speed
knots
gust
knots
rain 1hr
in
rain 24hr
in
rain mn
in
humidity
%
barometer
mb
20220124110016 39 236 0.0 0.0 0.00 0.00 0.00 95 1022.7
20220124105018 39 236 0.0 0.0 0.00 0.00 0.00 94 1022.8
20220124104015 39 236 0.0 0.0 0.00 0.00 0.00 94 1022.9
20220124103017 39 236 0.0 0.0 0.00 0.00 0.00 94 1022.9
20220124102016 39 236 0.0 0.0 0.00 0.00 0.00 94 1023.1
20220124101016 39 236 0.0 0.0 0.00 0.00 0.00 94 1023.0
20220124100015 40 236 0.0 0.0 0.00 0.00 0.00 93 1023.1
20220124095017 40 236 0.0 0.0 0.00 0.00 0.00 93 1023.1
20220124094017 40 236 0.0 0.0 0.00 0.00 0.00 93 1023.0
20220124093018 41 236 0.0 0.0 0.00 0.00 0.00 92 1023.0
20220124092017 41 236 0.0 0.0 0.00 0.00 0.00 92 1023.1
20220124091016 41 236 0.0 0.0 0.00 0.00 0.00 92 1023.1
20220124090016 41 236 0.0 0.0 0.00 0.00 0.00 92 1023.1
20220124085016 41 236 0.0 0.0 0.00 0.00 0.00 91 1023.2
20220124084016 42 236 0.0 0.0 0.00 0.00 0.00 91 1023.3
20220124083017 42 236 0.0 0.0 0.00 0.00 0.00 90 1023.4
20220124082016 42 236 0.0 0.0 0.00 0.00 0.00 90 1023.5
20220124081017 43 236 0.0 0.0 0.00 0.00 0.00 89 1023.6
20220124080015 43 236 0.0 0.0 0.00 0.00 0.00 88 1023.6
20220124075018 44 236 0.0 0.0 0.00 0.00 0.00 87 1023.6
20220124074015 44 236 0.0 0.0 0.00 0.00 0.00 88 1023.7
20220124073017 44 236 0.0 0.0 0.00 0.00 0.00 88 1023.8
20220124072016 44 236 0.0 0.0 0.00 0.00 0.00 88 1023.8
20220124071016 44 236 0.0 0.0 0.00 0.00 0.00 88 1023.8
20220124070017 44 236 0.0 0.0 0.00 0.00 0.00 87 1023.8
20220124065017 45 236 0.0 0.0 0.00 0.00 0.00 87 1023.7
20220124064017 45 236 0.0 0.0 0.00 0.00 0.00 87 1023.8
20220124063016 45 236 0.0 0.0 0.00 0.00 0.00 88 1023.7
20220124062017 45 236 0.0 0.0 0.00 0.00 0.00 88 1023.7
20220124061015 45 236 0.0 0.0 0.00 0.00 0.00 87 1023.8
20220124060016 45 236 0.0 0.0 0.00 0.00 0.00 86 1023.8
20220124055017 46 236 0.0 0.0 0.00 0.00 0.00 86 1023.8
20220124054018 46 236 0.0 0.0 0.00 0.00 0.00 86 1023.7
20220124053017 46 236 0.0 0.9 0.00 0.00 0.00 85 1023.7
20220124052014 46 236 0.9 1.7 0.00 0.00 0.00 85 1023.8
20220124051017 47 236 0.9 1.7 0.00 0.00 0.00 85 1023.8
20220124050015 47 236 0.0 0.0 0.00 0.00 0.00 85 1023.8
20220124045016 46 236 0.0 0.0 0.00 0.00 0.00 86 1023.7
20220124044018 47 236 0.0 0.0 0.00 0.00 0.00 85 1023.6
20220124043016 47 236 0.0 0.0 0.00 0.00 0.00 84 1023.6
20220124042018 48 236 0.0 0.0 0.00 0.00 0.00 83 1023.6
20220124041018 48 236 0.0 0.0 0.00 0.00 0.00 83 1023.6
20220124040015 49 236 0.0 0.0 0.00 0.00 0.00 82 1023.5
20220124035016 49 236 0.9 1.7 0.00 0.00 0.00 81 1023.5
20220124034017 49 236 0.0 0.0 0.00 0.00 0.00 81 1023.5
20220124033016 50 236 0.0 0.0 0.00 0.00 0.00 79 1023.5
20220124032017 51 236 0.9 1.7 0.00 0.00 0.00 78 1023.5
20220124031017 51 236 0.9 1.7 0.00 0.00 0.00 77 1023.5
20220124030037 52 236 0.0 0.9 0.00 0.00 0.00 76 1023.4
20220124025019 53 236 0.0 1.7 0.00 0.00 0.00 75 1023.5
20220124024015 53 236 0.9 1.7 0.00 0.00 0.00 74 1023.4
20220124023017 54 236 0.9 1.7 0.00 0.00 0.00 73 1023.4
20220124022017 55 236 0.0 1.7 0.00 0.00 0.00 71 1023.3
20220124021015 55 236 0.0 2.6 0.00 0.00 0.00 70 1023.3
20220124020014 57 236 0.9 1.7 0.00 0.00 0.00 68 1023.2
20220124015016 58 236 0.9 2.6 0.00 0.00 0.00 66 1023.1
20220124014016 59 236 0.9 2.6 0.00 0.00 0.00 62 1023.1
20220124013018 61 325 0.9 1.7 0.00 0.00 0.00 57 1023.1
20220124012017 63 325 0.9 1.7 0.00 0.00 0.00 53 1023.0
20220124011017 65 325 0.9 1.7 0.00 0.00 0.00 50 1023.0
20220124010015 66 325 0.0 1.7 0.00 0.00 0.00 48 1023.1
20220124005016 66 325 0.9 2.6 0.00 0.00 0.00 45 1023.1
20220124004015 67 40 0.9 2.6 0.00 0.00 0.00 45 1023.1
20220124003017 67 348 1.7 2.6 0.00 0.00 0.00 44 1023.0
20220124002016 67 284 1.7 4.3 0.00 0.00 0.00 44 1023.0
20220124001017 68 358 1.7 2.6 0.00 0.00 0.00 43 1022.9
20220124000017 67 5 0.9 5.2 0.00 0.00 0.00 45 1022.9
20220123235017 68 339 1.7 4.3 0.00 0.00 0.00 44 1022.9
20220123234015 68 352 1.7 4.3 0.00 0.00 0.00 45 1023.0
20220123233017 67 293 1.7 4.3 0.00 0.00 0.00 44 1023.1
20220123232016 68 302 1.7 4.3 0.00 0.00 0.00 44 1023.1
20220123231016 68 344 1.7 4.3 0.00 0.00 0.00 42 1023.1
20220123230015 68 317 1.7 2.6 0.00 0.00 0.00 43 1023.1
20220123225016 67 349 2.6 4.3 0.00 0.00 0.00 44 1023.2
20220123224015 67 53 1.7 6.1 0.00 0.00 0.00 45 1023.2
20220123223016 67 303 1.7 5.2 0.00 0.00 0.00 44 1023.2
20220123222015 67 290 2.6 5.2 0.00 0.00 0.00 45 1023.3
20220123221016 67 341 2.6 6.1 0.00 0.00 0.00 45 1023.3
20220123220013 66 307 1.7 2.6 0.00 0.00 0.00 47 1023.2
20220123215016 65 355 0.9 4.3 0.00 0.00 0.00 47 1023.3
20220123214016 64 341 1.7 4.3 0.00 0.00 0.00 49 1023.3
20220123213017 64 281 1.7 6.1 0.00 0.00 0.00 48 1023.5
20220123212016 64 13 1.7 6.1 0.00 0.00 0.00 50 1023.6
20220123211016 64 316 1.7 7.0 0.00 0.00 0.00 50 1023.7
20220123210015 64 304 1.7 6.1 0.00 0.00 0.00 49 1023.9
20220123205021 63 341 0.9 7.8 0.00 0.00 0.00 50 1024.1
20220123204015 63 346 3.5 7.8 0.00 0.00 0.00 49 1024.3
20220123203017 63 317 3.5 7.8 0.00 0.00 0.00 50 1024.5
20220123202016 62 335 2.6 7.8 0.00 0.00 0.00 50 1024.6
20220123201016 61 318 2.6 6.1 0.00 0.00 0.00 52 1024.6
20220123200017 61 17 1.7 7.8 0.00 0.00 0.00 55 1024.6
20220123195017 60 321 4.3 7.8 0.00 0.00 0.00 53 1024.6
20220123194016 60 308 2.6 5.2 0.00 0.00 0.00 55 1024.7
20220123193016 60 279 1.7 6.1 0.00 0.00 0.00 53 1024.8
20220123192016 60 336 1.7 4.3 0.00 0.00 0.00 54 1025.0
20220123191017 59 2 1.7 7.8 0.00 0.00 0.00 56 1025.1
20220123190014 59 356 1.7 5.2 0.00 0.00 0.00 57 1025.1
20220123185016 58 304 2.6 5.2 0.00 0.00 0.00 57 1025.1
20220123184016 58 16 2.6 4.3 0.00 0.00 0.00 58 1025.1
20220123183017 57 329 1.7 2.6 0.00 0.00 0.00 58 1025.1
20220123182016 57 19 1.7 2.6 0.00 0.00 0.00 60 1025.1
20220123181016 57 36 0.9 2.6 0.00 0.00 0.00 61 1024.9
20220123180014 56 101 0.0 2.6 0.00 0.00 0.00 61 1024.7
20220123175016 54 103 1.7 2.6 0.00 0.00 0.00 64 1024.7
20220123174015 53 179 0.0 2.6 0.00 0.00 0.00 67 1024.7
20220123173017 52 177 1.7 2.6 0.00 0.00 0.00 68 1024.7
20220123172016 51 90 0.0 1.7 0.00 0.00 0.00 73 1024.7
20220123171016 49 90 0.9 2.6 0.00 0.00 0.00 75 1024.7
20220123170013 48 186 0.0 0.0 0.00 0.00 0.00 81 1024.7
20220123165017 46 187 0.0 0.0 0.00 0.00 0.00 85 1024.6
20220123164014 44 200 0.0 0.0 0.00 0.00 0.00 88 1024.6
20220123163016 42 200 0.0 0.0 0.00 0.00 0.00 93 1024.4
20220123162016 40 200 0.0 0.0 0.00 0.00 0.00 95 1024.4
20220123161016 38 200 0.0 0.0 0.00 0.00 0.00 95 1024.5
20220123160015 37 200 0.0 0.0 0.00 0.00 0.00 96 1024.5
20220123155014 36 200 0.0 0.0 0.00 0.00 0.00 95 1024.5
20220123154015 36 200 0.0 0.0 0.00 0.00 0.00 95 1024.4
20220123153016 36 200 0.0 0.0 0.00 0.00 0.00 95 1024.5
20220123152013 36 200 0.0 0.0 0.00 0.00 0.00 94 1024.5
20220123151015 36 200 0.0 0.0 0.00 0.00 0.00 93 1024.2
20220123150014 37 200 0.0 0.0 0.00 0.00 0.00 94 1024.1
20220123145015 37 200 0.0 0.0 0.00 0.00 0.00 93 1024.0
20220123144015 37 200 0.0 0.0 0.00 0.00 0.00 93 1024.0
20220123143018 37 200 0.0 0.0 0.00 0.00 0.00 93 1024.0
20220123142015 37 200 0.0 0.0 0.00 0.00 0.00 94 1023.9
20220123141015 37 200 0.0 0.0 0.00 0.00 0.00 93 1023.9
20220123140015 38 200 0.0 0.0 0.00 0.00 0.00 93 1023.8
20220123135015 37 200 0.0 0.0 0.00 0.00 0.00 93 1023.8
20220123134014 37 200 0.0 0.0 0.00 0.00 0.00 92 1023.7
20220123133015 38 200 0.0 0.0 0.00 0.00 0.00 91 1023.4
20220123132016 38 200 0.0 0.0 0.00 0.00 0.00 92 1023.2
20220123131017 38 200 0.0 0.0 0.00 0.00 0.00 92 1023.2
20220123130016 38 200 0.0 0.0 0.00 0.00 0.00 91 1023.1
20220123125015 38 200 0.0 0.0 0.00 0.00 0.00 91 1023.2
20220123124014 39 200 0.0 0.0 0.00 0.00 0.00 90 1023.1
20220123123016 39 200 0.0 0.0 0.00 0.00 0.00 91 1023.0
20220123122014 38 119 0.0 0.0 0.00 0.00 0.00 92 1023.1
20220123121014 38 119 0.0 0.0 0.00 0.00 0.00 92 1022.9
20220123120015 38 119 0.0 0.0 0.00 0.00 0.00 92 1023.0
20220123115015 39 119 0.0 0.0 0.00 0.00 0.00 91 1022.9
20220123114014 39 119 0.0 0.0 0.00 0.00 0.00 91 1022.9
20220123113016 39 119 0.0 0.0 0.00 0.00 0.00 91 1022.9
20220123112013 39 119 0.0 0.0 0.00 0.00 0.00 91 1022.7
20220123111014 39 119 0.0 0.0 0.00 0.00 0.00 91 1022.7